Time,TemperatureF,DewpointF,PressureIn,WindDirection,WindDirectionDegrees,WindSpeedMPH,WindSpeedGustMPH,Humidity,HourlyPrecipIn,Conditions,Clouds,dailyrainin,SolarRadiationWatts/m^2,SoftwareType,DateUTC
2013-02-13 00:21:00,62.0,54.0,-100.00,ENE,73,3.0,14.0,75,0.00,,,0.01,0.000000,,2013-02-13 10:21:00,
2013-02-13 00:31:00,62.0,54.0,-100.00,ENE,73,3.0,14.0,75,0.00,,,0.01,0.000000,,2013-02-13 10:31:00,
2013-02-13 00:41:00,62.0,54.0,-100.00,ENE,73,3.0,14.0,75,0.00,,,0.01,0.000000,,2013-02-13 10:41:00,
2013-02-13 00:51:00,62.0,54.0,-100.00,ENE,73,3.0,14.0,75,0.00,,,0.01,0.000000,,2013-02-13 10:51:00,
2013-02-13 01:22:00,63.0,54.0,-100.00,NE,34,5.0,17.0,72,0.00,,,0.01,0.000000,,2013-02-13 11:22:00,
2013-02-13 01:32:00,63.0,54.0,-100.00,NE,34,5.0,17.0,72,0.00,,,0.01,0.000000,,2013-02-13 11:32:00,
2013-02-13 01:42:00,63.0,54.0,-100.00,NE,34,5.0,17.0,72,0.00,,,0.01,0.000000,,2013-02-13 11:42:00,
2013-02-13 01:52:00,63.0,54.0,-100.00,NE,34,5.0,17.0,72,0.00,,,0.01,0.000000,,2013-02-13 11:52:00,
2013-02-13 02:21:00,64.0,58.0,-100.00,NE,56,4.0,11.0,80,0.00,,,0.01,0.000000,,2013-02-13 12:21:00,
2013-02-13 02:32:00,64.0,58.0,-100.00,NE,56,4.0,11.0,80,0.00,,,0.01,0.000000,,2013-02-13 12:32:00,
2013-02-13 02:42:00,64.0,58.0,-100.00,NE,56,4.0,11.0,80,0.00,,,0.01,0.000000,,2013-02-13 12:42:00,
2013-02-13 02:52:00,64.0,58.0,-100.00,NE,56,4.0,11.0,80,0.00,,,0.01,0.000000,,2013-02-13 12:52:00,
2013-02-13 03:21:00,64.0,57.0,-100.00,NE,34,5.0,15.0,78,0.00,,,0.01,0.000000,,2013-02-13 13:21:00,
2013-02-13 03:31:00,64.0,57.0,-100.00,NE,34,5.0,15.0,78,0.00,,,0.01,0.000000,,2013-02-13 13:31:00,
2013-02-13 03:41:00,64.0,57.0,-100.00,NE,34,5.0,15.0,78,0.00,,,0.01,0.000000,,2013-02-13 13:41:00,
2013-02-13 03:51:00,64.0,57.0,-100.00,NE,34,5.0,15.0,78,0.00,,,0.01,0.000000,,2013-02-13 13:51:00,
2013-02-13 04:21:00,62.0,53.0,-100.00,NE,37,5.0,16.0,73,0.00,,,0.01,0.000000,,2013-02-13 14:21:00,
2013-02-13 04:31:00,62.0,53.0,-100.00,NE,37,5.0,16.0,73,0.00,,,0.01,0.000000,,2013-02-13 14:31:00,
2013-02-13 04:41:00,62.0,53.0,-100.00,NE,37,5.0,16.0,73,0.00,,,0.01,0.000000,,2013-02-13 14:41:00,
2013-02-13 04:52:00,62.0,53.0,-100.00,NE,37,5.0,16.0,73,0.00,,,0.01,0.000000,,2013-02-13 14:52:00,
2013-02-13 05:21:00,62.0,55.0,-100.00,NE,35,4.0,11.0,79,0.00,,,0.01,0.000000,,2013-02-13 15:21:00,
2013-02-13 05:32:00,62.0,55.0,-100.00,NE,35,4.0,11.0,79,0.00,,,0.01,0.000000,,2013-02-13 15:32:00,
2013-02-13 05:42:00,62.0,55.0,-100.00,NE,35,4.0,11.0,79,0.00,,,0.01,0.000000,,2013-02-13 15:42:00,
2013-02-13 05:51:00,62.0,55.0,-100.00,NE,35,4.0,11.0,79,0.00,,,0.01,0.000000,,2013-02-13 15:51:00,
2013-02-13 06:11:00,62.0,53.0,-100.00,NNW,344,3.0,13.0,73,0.00,,,0.01,0.000000,,2013-02-13 16:11:00,
2013-02-13 06:21:00,62.0,53.0,-100.00,NNW,344,3.0,13.0,73,0.00,,,0.01,0.000000,,2013-02-13 16:21:00,
2013-02-13 06:31:00,62.0,53.0,-100.00,NNW,344,3.0,13.0,73,0.00,,,0.01,0.000000,,2013-02-13 16:31:00,
2013-02-13 06:41:00,62.0,53.0,-100.00,NNW,344,3.0,13.0,73,0.00,,,0.01,0.000000,,2013-02-13 16:41:00,
2013-02-13 06:51:00,62.0,53.0,-100.00,NNW,344,3.0,13.0,73,0.00,,,0.01,0.000000,,2013-02-13 16:51:00,
2013-02-13 07:21:00,61.0,53.0,-100.00,NNE,28,3.0,13.0,75,0.00,,,0.01,0.000000,,2013-02-13 17:21:00,
2013-02-13 07:31:00,61.0,53.0,-100.00,NNE,28,3.0,13.0,75,0.00,,,0.01,0.000000,,2013-02-13 17:31:00,
2013-02-13 07:41:00,61.0,53.0,-100.00,NNE,28,3.0,13.0,75,0.00,,,0.01,0.000000,,2013-02-13 17:41:00,
2013-02-13 07:52:00,61.0,53.0,-100.00,NNE,28,3.0,13.0,75,0.00,,,0.01,0.000000,,2013-02-13 17:52:00,
2013-02-13 08:22:00,63.0,54.0,-100.00,North,351,4.0,8.0,73,0.00,,,0.01,43.000000,,2013-02-13 18:22:00,
2013-02-13 08:32:00,63.0,54.0,-100.00,North,351,4.0,8.0,73,0.00,,,0.01,43.000000,,2013-02-13 18:32:00,
2013-02-13 08:41:00,63.0,54.0,-100.00,North,351,4.0,8.0,73,0.00,,,0.01,43.000000,,2013-02-13 18:41:00,
2013-02-13 08:51:00,63.0,54.0,-100.00,North,351,4.0,8.0,73,0.00,,,0.01,43.000000,,2013-02-13 18:51:00,
2013-02-13 09:21:00,70.0,56.0,-100.00,NNE,25,5.0,12.0,61,0.00,,,0.01,260.000000,,2013-02-13 19:21:00,
2013-02-13 09:31:00,70.0,56.0,-100.00,NNE,25,5.0,12.0,61,0.00,,,0.01,260.000000,,2013-02-13 19:31:00,
2013-02-13 09:41:00,70.0,56.0,-100.00,NNE,25,5.0,12.0,61,0.00,,,0.01,260.000000,,2013-02-13 19:41:00,
2013-02-13 09:51:00,70.0,56.0,-100.00,NNE,25,5.0,12.0,61,0.00,,,0.01,260.000000,,2013-02-13 19:51:00,
2013-02-13 10:21:00,66.0,56.0,-100.00,NE,40,5.0,17.0,70,0.00,,,0.01,245.000000,,2013-02-13 20:21:00,
2013-02-13 10:31:00,66.0,56.0,-100.00,NE,40,5.0,17.0,70,0.00,,,0.01,245.000000,,2013-02-13 20:31:00,
2013-02-13 10:41:00,66.0,56.0,-100.00,NE,40,5.0,17.0,70,0.00,,,0.01,245.000000,,2013-02-13 20:41:00,
2013-02-13 10:52:00,66.0,56.0,-100.00,NE,40,5.0,17.0,70,0.00,,,0.01,245.000000,,2013-02-13 20:52:00,
2013-02-13 11:21:00,69.0,56.0,-100.00,West,274,4.0,16.0,63,0.00,,,0.01,484.000000,,2013-02-13 21:21:00,
2013-02-13 11:31:00,69.0,56.0,-100.00,West,274,4.0,16.0,63,0.00,,,0.01,484.000000,,2013-02-13 21:31:00,
2013-02-13 11:42:00,69.0,56.0,-100.00,West,274,4.0,16.0,63,0.00,,,0.01,484.000000,,2013-02-13 21:42:00,
2013-02-13 11:52:00,69.0,56.0,-100.00,West,274,4.0,16.0,63,0.00,,,0.01,484.000000,,2013-02-13 21:52:00,
2013-02-13 12:21:00,70.0,55.0,-100.00,NE,49,7.0,16.0,60,0.00,,,0.01,680.000000,,2013-02-13 22:21:00,
2013-02-13 12:31:00,70.0,55.0,-100.00,NE,49,7.0,16.0,60,0.00,,,0.01,680.000000,,2013-02-13 22:31:00,
2013-02-13 12:42:00,70.0,55.0,-100.00,NE,49,7.0,16.0,60,0.00,,,0.01,680.000000,,2013-02-13 22:42:00,
2013-02-13 12:51:00,70.0,55.0,-100.00,NE,49,7.0,16.0,60,0.00,,,0.01,680.000000,,2013-02-13 22:51:00,
2013-02-13 13:21:00,72.0,58.0,-100.00,ENE,59,5.0,15.0,62,0.00,,,0.01,657.000000,,2013-02-13 23:21:00,
2013-02-13 13:32:00,72.0,58.0,-100.00,ENE,59,5.0,15.0,62,0.00,,,0.01,657.000000,,2013-02-13 23:32:00,
2013-02-13 13:41:00,72.0,58.0,-100.00,ENE,59,5.0,15.0,62,0.00,,,0.01,657.000000,,2013-02-13 23:41:00,
2013-02-13 13:52:00,72.0,58.0,-100.00,ENE,59,5.0,15.0,62,0.00,,,0.01,657.000000,,2013-02-13 23:52:00,
2013-02-13 14:21:00,70.0,57.0,-100.00,NE,47,8.0,20.0,63,0.00,,,0.01,752.000000,,2013-02-14 00:21:00,
2013-02-13 14:31:00,70.0,57.0,-100.00,NE,47,8.0,20.0,63,0.00,,,0.01,752.000000,,2013-02-14 00:31:00,
2013-02-13 14:42:00,70.0,57.0,-100.00,NE,47,8.0,20.0,63,0.00,,,0.01,752.000000,,2013-02-14 00:42:00,
2013-02-13 14:51:00,70.0,57.0,-100.00,NE,47,8.0,20.0,63,0.00,,,0.01,752.000000,,2013-02-14 00:51:00,
2013-02-13 15:21:00,73.0,56.0,-100.00,ENE,66,5.0,16.0,55,0.00,,,0.01,886.000000,,2013-02-14 01:21:00,
2013-02-13 15:31:00,73.0,56.0,-100.00,ENE,66,5.0,16.0,55,0.00,,,0.01,886.000000,,2013-02-14 01:31:00,
2013-02-13 15:41:00,73.0,56.0,-100.00,ENE,66,5.0,16.0,55,0.00,,,0.01,886.000000,,2013-02-14 01:41:00,
2013-02-13 15:51:00,73.0,56.0,-100.00,ENE,66,5.0,16.0,55,0.00,,,0.01,886.000000,,2013-02-14 01:51:00,
2013-02-13 16:21:00,70.0,56.0,-100.00,East,97,9.0,18.0,61,0.00,,,0.00,579.000000,,2013-02-14 02:21:00,
2013-02-13 16:31:00,70.0,56.0,-100.00,East,97,9.0,18.0,61,0.00,,,0.00,579.000000,,2013-02-14 02:31:00,
2013-02-13 16:41:00,70.0,56.0,-100.00,East,97,9.0,18.0,61,0.00,,,0.00,579.000000,,2013-02-14 02:41:00,
2013-02-13 16:51:00,70.0,56.0,-100.00,East,97,9.0,18.0,61,0.00,,,0.00,579.000000,,2013-02-14 02:51:00,
2013-02-13 17:21:00,67.0,58.0,-100.00,NE,42,6.0,15.0,74,0.00,,,0.00,243.000000,,2013-02-14 03:21:00,
2013-02-13 17:31:00,67.0,58.0,-100.00,NE,42,6.0,15.0,74,0.00,,,0.00,243.000000,,2013-02-14 03:31:00,
2013-02-13 17:42:00,67.0,58.0,-100.00,NE,42,6.0,15.0,74,0.00,,,0.00,243.000000,,2013-02-14 03:42:00,
2013-02-13 17:51:00,67.0,58.0,-100.00,NE,42,6.0,15.0,74,0.00,,,0.00,243.000000,,2013-02-14 03:51:00,
2013-02-13 18:11:00,65.0,59.0,-100.00,NE,47,5.0,15.0,82,0.00,,,0.00,102.000000,,2013-02-14 04:11:00,
2013-02-13 18:21:00,65.0,59.0,-100.00,NE,47,5.0,15.0,82,0.00,,,0.00,102.000000,,2013-02-14 04:21:00,
2013-02-13 18:31:00,65.0,59.0,-100.00,NE,47,5.0,15.0,82,0.00,,,0.00,102.000000,,2013-02-14 04:31:00,
2013-02-13 18:41:00,65.0,59.0,-100.00,NE,47,5.0,15.0,82,0.00,,,0.00,102.000000,,2013-02-14 04:41:00,
2013-02-13 18:51:00,65.0,59.0,-100.00,NE,47,5.0,15.0,82,0.00,,,0.00,102.000000,,2013-02-14 04:51:00,
2013-02-13 19:21:00,62.0,57.0,-100.00,NE,40,5.0,10.0,84,0.00,,,0.00,12.000000,,2013-02-14 05:21:00,
2013-02-13 19:31:00,62.0,57.0,-100.00,NE,40,5.0,10.0,84,0.00,,,0.00,12.000000,,2013-02-14 05:31:00,
2013-02-13 19:41:00,62.0,57.0,-100.00,NE,40,5.0,10.0,84,0.00,,,0.00,12.000000,,2013-02-14 05:41:00,
2013-02-13 19:52:00,62.0,57.0,-100.00,NE,40,5.0,10.0,84,0.00,,,0.00,12.000000,,2013-02-14 05:52:00,
2013-02-13 20:11:00,63.0,59.0,-100.00,North,5,2.0,7.0,88,0.00,,,0.00,0.000000,,2013-02-14 06:11:00,
2013-02-13 20:21:00,63.0,59.0,-100.00,North,5,2.0,7.0,88,0.00,,,0.00,0.000000,,2013-02-14 06:21:00,
2013-02-13 20:31:00,63.0,59.0,-100.00,North,5,2.0,7.0,88,0.00,,,0.00,0.000000,,2013-02-14 06:31:00,
2013-02-13 20:41:00,63.0,59.0,-100.00,North,5,2.0,7.0,88,0.00,,,0.00,0.000000,,2013-02-14 06:41:00,
2013-02-13 20:51:00,63.0,59.0,-100.00,North,5,2.0,7.0,88,0.00,,,0.00,0.000000,,2013-02-14 06:51:00,
2013-02-13 21:21:00,62.0,60.0,-100.00,ENE,66,4.0,9.0,94,0.00,,,0.00,0.000000,,2013-02-14 07:21:00,
2013-02-13 21:31:00,62.0,60.0,-100.00,ENE,66,4.0,9.0,94,0.00,,,0.00,0.000000,,2013-02-14 07:31:00,
2013-02-13 21:41:00,62.0,60.0,-100.00,ENE,66,4.0,9.0,94,0.00,,,0.00,0.000000,,2013-02-14 07:41:00,
2013-02-13 21:51:00,62.0,60.0,-100.00,ENE,66,4.0,9.0,94,0.00,,,0.00,0.000000,,2013-02-14 07:51:00,
2013-02-13 22:21:00,59.0,58.0,-100.00,NNE,20,4.0,8.0,97,0.00,,,0.00,0.000000,,2013-02-14 08:21:00,
2013-02-13 22:31:00,59.0,58.0,-100.00,NNE,20,4.0,8.0,97,0.00,,,0.00,0.000000,,2013-02-14 08:31:00,
2013-02-13 22:43:00,59.0,58.0,-100.00,NNE,20,4.0,8.0,97,0.00,,,0.00,0.000000,,2013-02-14 08:43:00,
2013-02-13 22:52:00,59.0,58.0,-100.00,NNE,20,4.0,8.0,97,0.00,,,0.00,0.000000,,2013-02-14 08:52:00,
2013-02-13 23:21:00,62.0,59.0,-100.00,North,9,3.0,9.0,91,0.00,,,0.00,0.000000,,2013-02-14 09:21:00,
2013-02-13 23:31:00,62.0,59.0,-100.00,North,9,3.0,9.0,91,0.00,,,0.00,0.000000,,2013-02-14 09:31:00,
2013-02-13 23:41:00,62.0,59.0,-100.00,North,9,3.0,9.0,91,0.00,,,0.00,0.000000,,2013-02-14 09:41:00,
2013-02-13 23:51:00,62.0,59.0,-100.00,North,9,3.0,9.0,91,0.00,,,0.00,0.000000,,2013-02-14 09:51:00,